NOAA 16 DEB, 41228

Orbit data source: Space-Track

NOAA 16 DEB, 41228 is space debris in SSO originally from a launch on Thu, 21 Sep 2000 UTC launched from the Air Force Western Test Range (AFWTR). Debris objects in space refer to the collection of defunct objects orbiting the Earth. Examples of debris include non-operational satellites, rocket bodies, and fragments generated from explosions, collisions, or faulty payload assembly.

Loading next visibility...
Identifier
41228, 2000-055EH
Orbit
SSO
Country
Flag of USUS
Related business
Manufacturer
Unknown
Mission
Spacecraft
Bus & Motor
Unknown
Mass
Unknown
Launch date (UTC)
2000-09-21 (25 years ago)
Launch vehicle
Unknown
Launch site
Air Force Western Test Range (AFWTR)
Object type
Payload
Rocket body
Debris
Shape & HBR
Unknown shape, 0.1 m
Radar Cross Section
Small (<0.1 m²)

Expand to show TLE details & history
Last TLE update: 7 hours ago

TLE from 7 hours ago
0 NOAA 16 DEB
1 41228U 00055EH  26034.18451137  .00004576  00000-0  17777-2 0  9995
2 41228  98.7261 118.9239 0016780  66.0464 294.2473 14.30278900523806
Epoch: 2026-02-03T04:25Z
TLE epoch observation values (Epoch: 2026-02-03T04:25:41.782Z)
Latitude
-0.00005°
Longitude
-80.86927°
Altitude
788.802 km
Speed
7.462 km/s
True Right ascension
07h 55m 41s
True Declination
0° 00' 00"
Sunlit
Object was in full shadow at epoch
Visualization orbit readout
Latitude
Unknown
Longitude
Unknown
Altitude
Unknown
Speed
Unknown
Apparent Right ascension
Unknown
Apparent Declination
Unknown
Sunlit
N/A
Visualization observer readout
Local Sidereal Time
13:41:52
Azimuth
Unknown
Elevation
Unknown
Doppler factor
Unknown
Orbital elements
Apogee altitude
799.969 km
Perigee altitude
775.92 km
Semi-major axis
7,166.081 km
Eccentricity
0.00168
Inclination
98.7261°
RAAN
118.9239°
Arg. of periapsis
66.0464°
True anomaly
294.07183°
Mean anomaly
294.2473°
Eccentric anomaly
294.15958°
Mean motion
3.57784 °/min
Orbital period
100.62 mins
BSTAR
0.0017777
Loading maneuver chart data...
Computing Atmospheric mass density...
Loading historical data...
Loading historical data...
Loading historical data...
Loading historical data...
Loading historical data...
Loading historical data...
Loading historical data...

Documentation

Showing up to 5 results
|